This is the latest recevied weather packets stored in our database for station/object VE3EP-1. If no packets are shown the sender has not sent any weather packets the latest 10 day(s).
| Time | Temp. | Humidity | Pressure | Rain* | Wind** | Luminosity | Snow |
|---|---|---|---|---|---|---|---|
| 1778094130 | 8.33° C | 80% | 1012.5 hPa | 0 mm | - | - | - |
| 1778093529 | 8.33° C | 81% | 1012.2 hPa | 0 mm | - | - | - |
| 1778092329 | 8.33° C | 83% | 1012.6 hPa | 0 mm | - | - | - |
| 1778091729 | 8.33° C | 83% | 1012.8 hPa | 0 mm | - | - | - |
| 1778091128 | 7.78° C | 76% | 1012.6 hPa | 0 mm | - | - | - |
| 1778090529 | 7.78° C | 79% | 1012.6 hPa | 0 mm | - | - | - |
| 1778088728 | 7.78° C | 79% | 1012.5 hPa | 0 mm | - | - | - |
| 1778088128 | 7.78° C | 81% | 1012.4 hPa | 0 mm | - | - | - |
| 1778087529 | 7.78° C | 81% | 1012.5 hPa | 0 mm | - | - | - |
| 1778086928 | 7.78° C | 80% | 1012.5 hPa | 0 mm | - | - | - |
| 1778086328 | 7.78° C | 81% | 1012.5 hPa | 0 mm | - | - | - |
| 1778085728 | 7.78° C | 82% | 1012.3 hPa | 0 mm | - | - | - |
| 1778085128 | 7.78° C | 84% | 1012.4 hPa | 0 mm | - | - | - |
| 1778084528 | 7.78° C | 83% | 1012.4 hPa | 0 mm | - | - | - |
| 1778083928 | 8.33° C | 81% | 1012.3 hPa | 0 mm | - | - | - |
| 1778083328 | 7.22° C | 85% | 1012.1 hPa | 0 mm | - | - | - |
| 1778082728 | 7.22° C | 84% | 1012.4 hPa | 0 mm | - | - | - |
| 1778082128 | 7.22° C | 86% | 1012.3 hPa | 0 mm | - | - | - |
| 1778081528 | 6.67° C | 87% | 1012.4 hPa | 0 mm | - | - | - |
| 1778080928 | 7.22° C | 86% | 1012.4 hPa | 0 mm | - | - | - |
| 1778080328 | 7.22° C | 89% | 1012.5 hPa | 0 mm | - | - | - |
| 1778079728 | 6.67° C | 89% | 1012.5 hPa | 0 mm | - | - | - |
| 1778079128 | 6.67° C | 90% | 1012.6 hPa | 0 mm | - | - | - |
| 1778078529 | 6.67° C | 90% | 1012.5 hPa | 0 mm | - | - | - |
| 1778077928 | 6.67° C | 92% | 1012.3 hPa | 0 mm | - | - | - |
* Rain latest hour (hover to see other rain measurements)
** Current wind speed in m/s (hover to see current wind gust speed)